Regional Weather Roundup
Issued by NWS

Home | Current Version | Previous Version | Text Only | Print | Product List | Glossary Off
Versions: 1 2 3 4 5 6 7 8 9 10 11 12 13 14 15 16 17 18 19 20 21 22 23 24 25 26 27 28 29 30 31 32 33 34 35 36 37 38 39 40 41 42 43 44 45 46 47 48 49 50

000
ASUS45 KBOU 230607
RWRCO

WEATHER ROUNDUP FOR COLORADO
NATIONAL WEATHER SERVICE DENVER/BOULDER CO
1100 PM MST SAT NOV 22 2014

NOTE: "FAIR" INDICATES FEW OR NO CLOUDS BELOW 12000 FEET WITH NO
SIGNIFICANT WEATHER AND/OR OBSTRUCTIONS TO VISIBILITY.

COZ001>005-013-030-031-230700-
...NORTHWEST COLORADO...

CITY           SKY/WX    TMP DP  RH WIND       PRES   REMARKS
CRAIG          FLURRIES  33  30  88 SW10      29.77F WCI  25
HAYDEN         CLOUDY    30  27  86 SW7       29.77S WCI  23
MEEKER         LGT SNOW  33  30  88 NW9       29.80R VSB 3/4 WCI  25
MOUNT WERNER   NOT AVBL
STEAMBOAT SPGS CLOUDY    30  29  96 SW7       29.75S WCI  23
WALDEN         CLOUDY    30  21  69 W5        29.70S WCI  25
$$

COZ006>008-011-230700-
...WEST CENTRAL VALLEYS...

CITY           SKY/WX    TMP DP  RH WIND       PRES   REMARKS
GRAND JUNCTION LGT RAIN  34  33  96 NW6       29.83R WCI  29
MONTROSE       CLOUDY    39  29  67 SE3       29.81R
EAGLE          CLOUDY    34  32  93 E6        29.75F WCI  29
RIFLE          LGT RAIN  34  32  92 N3        29.78S
DELTA          LGT RAIN  42  36  80 NE9       29.81R
NUCLA          CLOUDY    43  23  45 NW8       29.84S
$$

COZ017>023-064>068-230700-
...SOUTHWEST COLORADO...

CITY           SKY/WX    TMP DP  RH WIND       PRES   REMARKS
DURANGO        CLOUDY    32  31  96 CALM      29.86F
CORTEZ         CLOUDY    38  36  92 E3        29.84F
PAGOSA SPRINGS CLOUDY    33  25  73 CALM      29.88F
TELLURIDE      CLOUDY    35  21  57 SW8G23    29.87S WCI  28
WOLF CREEK PAS SNOW      18  18 100 SW23G41   29.87F VSB 1/2 WCI   0
$$

COZ009-010-012-014-032>034-037-058>063-230700-
...CENTRAL COLORADO...

CITY           SKY/WX    TMP DP  RH WIND       PRES   REMARKS
ASPEN          CLOUDY    31  29  92 NW3       29.74F
BUENA VISTA    CLOUDY    34  26  72 CALM      29.70S
COPPER MTN     SNOW      27  19  74 W22G40    29.76R VSB 1/4 WCI  12
BERTHOUD PASS  SNOW      18  14  86 W31G41    29.72F VSB 1/2 WCI  -2
COTTONWOOD PAS LGT SNOW  32  23  69 W31G46    29.70F WCI  17
GUNNISON       CLOUDY    28  25  86 CALM      29.80F
KREMMLING      LGT SNOW  32  28  86 W5        29.75R WCI  27
LEADVILLE      FLURRIES  26  21  81 NW10      29.73F WCI  16
SALIDA         CLOUDY    38  29  69 NW9       29.81R
SUNLIGHT       CLOUDY    27  27 100 SW3       29.77F FOG
WILKERSON PASS CLOUDY    21  19  93 SW15G26   29.70F WCI   8
$$

COZ069>075-230700-
...SAN LUIS VALLEY/SANGRE DE CRISTO MOUNTAINS...

CITY           SKY/WX    TMP DP  RH WIND       PRES   REMARKS
ALAMOSA        PTCLDY    27  15  61 N7        29.75F WCI  19
LA VETA PASS   PTCLDY    27  14  59 S13G32    29.71F WCI  16
SAGUACHE       FLURRIES  30  27  86 NW13      29.78F WCI  20
$$

COZ035-036-038>040-230700-
...NORTHERN COLORADO FRONT RANGE...

CITY           SKY/WX    TMP DP  RH WIND       PRES   REMARKS
DENVER INTL AP MOCLDY    47  25  42 NW9       29.56R
DMNS CITY PARK   N/A     43  25  48 S7        29.57R
AURORA         CLOUDY    39  26  60 S5        29.58R
FRONT RANGE AP MOCLDY    43  28  56 W13       29.57R
ERIE MUNI ARPT PTCLDY    39  27  62 N5        29.56R
BOULDER MUN AP PTCLDY    48  27  43 N3        29.56R
CENTENNIAL     MOCLDY    41  24  51 S7        29.57S
BROOMFIELD     PTCLDY    43  27  52 W5        29.56S
FORT COLLINS   PTCLDY    45  28  53 NW8       29.59R
LONGMONT       PTCLDY    47  27  44 N8        29.57R
$$

COZ041-046-047-076>085-087-088-230700-
...PIKES PEAK/PALMER DIVIDE AND SOUTHERN FOOTHILLS...

CITY           SKY/WX    TMP DP  RH WIND       PRES   REMARKS
COLO. SPRINGS  MOCLDY    46  23  40 W6        29.61R
A. F. ACADEMY  PTCLDY    45  21  38 NW6       29.62S
ELLICOTT       NOT AVBL
FALCON         NOT AVBL
FORT CARSON    PTCLDY    43  22  43 SW14G21   29.58F
LIMON          CLOUDY    39  22  50 N10       29.55F
MONUMENT HILL  CLOUDY    37  21  52 SW16      29.61R
TRINIDAD       CLEAR     44  20  38 W14       29.61F
$$

COZ042>045-048>051-090-091-230700-
...NORTHEAST COLORADO...

CITY           SKY/WX    TMP DP  RH WIND       PRES   REMARKS
GREELEY ARPT   MOCLDY    34  21  60 NW5       29.58R WCI  30
AKRON          CLOUDY    40  20  44 W7        29.53F
BURLINGTON     CLOUDY    41  18  39 NW8       29.50F
WRAY           CLOUDY    43  17  34 NW9       29.52R
STERLING       CLOUDY    39  25  56 W9        29.53R
HOLYOKE        CLOUDY    36  19  51 SW3       29.52S
FORT MORGAN    CLOUDY    39  20  46 N9        29.55R
$$

COZ086-089-092>099-230700-
...SOUTHEAST COLORADO...

CITY           SKY/WX    TMP DP  RH WIND       PRES   REMARKS
PUEBLO         PTCLDY    50  25  37 NW14      29.57S
LA JUNTA       MOCLDY    46  29  51 W12       29.52F
LAMAR          CLOUDY    49  27  42 NW12      29.47F
SPRINGFIELD      N/A     38  23  55 SW13      29.53F
$$


USA.gov is the U.S. government's official web portal to all federal, state and local government web resources and services.